Location: Sungai Bunut
(2.6333°N, 113.7333°E)
Time: 15:46:55
(UTC+00:00)

Vanguard 3 - Pass Details

Date: 05 December 2023
Orbit: 508 x 3239 km, 33.3° (Epoch: 21 February)

Event Time Altitude Azimuth Distance (km) Brightness Sun altitude
Rises 08:01:57 0° 219° (SW) 6,536 12.7 29.4°
Reaches altitude 10° 08:06:37 10° 210° (SSW) 5,790 12.5 28.4°
Maximum altitude 08:23:41 39° 147° (SSE) 4,231 11.0 24.6°
Drops below altitude 10° 08:39:58 10° 85° (E) 5,613 10.9 20.9°
Sets 08:44:17 0° 78° (ENE) 6,336 11.1 19.9°
